UNISAT-6

Last updated on Sun Aug 09 2026 00:03:15 GMT+0000 (Coordinated Universal Time)

1 40012U 14033C 26220.37044214 .00001399 00000+0 15424-3 0 9995 2 40012 97.7941 12.1911 0043411 255.8906 103.7485 14.88460658653922
UTC large
Height (km)
Speed (km/s)
/
Latitude / Longitude
Inclination (degrees)
Orbital Period (minutes)
Azimuth
Elevation
Range (km)
Doppler Factor

Next 0 passes for location: London (51.5072 / 0.1276)

No passes found over London.
UNISAT-6